This is the latest recevied weather packets stored in our database for station/object NN3A-3. If no packets are shown the sender has not sent any weather packets the latest 10 day(s).
| Time | Temp. | Humidity | Pressure | Rain* | Wind** | Luminosity | Snow |
|---|---|---|---|---|---|---|---|
| 1778091743 | 14.44° C | 96% | 1006.6 hPa | 0 mm | - | - | - |
| 1778091444 | 14.44° C | 96% | 1006.6 hPa | 0 mm | - | - | - |
| 1778091144 | 14.44° C | 96% | 1006.6 hPa | 0 mm | - | - | - |
| 1778090544 | 14.44° C | 96% | 1006.6 hPa | 0 mm | - | - | - |
| 1778089944 | 13.89° C | 96% | 1006.6 hPa | 0 mm | - | - | - |
| 1778089644 | 13.89° C | 96% | 1006.6 hPa | 0 mm | - | - | - |
| 1778089345 | 13.89° C | 96% | 1006.6 hPa | 0 mm | - | - | - |
| 1778088745 | 14.44° C | 96% | 1006.6 hPa | 0 mm | - | - | - |
| 1778088445 | 14.44° C | 96% | 1006.6 hPa | 0 mm | - | - | - |
| 1778088145 | 13.89° C | 96% | 1006.6 hPa | 0 mm | - | - | - |
| 1778087847 | 14.44° C | 97% | 1006.2 hPa | 0 mm | - | - | - |
| 1778086946 | 15.56° C | 97% | 1006.2 hPa | 0 mm | - | - | - |
| 1778086646 | 15.56° C | 97% | 1006.2 hPa | 0 mm | - | - | - |
| 1778086346 | 15.56° C | 97% | 1005.9 hPa | 0 mm | - | - | - |
| 1778086046 | 15° C | 98% | 1005.9 hPa | 0 mm | - | - | - |
| 1778085746 | 15.56° C | 98% | 1005.9 hPa | 0 mm | - | - | - |
| 1778085147 | 15.56° C | 98% | 1005.9 hPa | 0 mm | - | - | - |
| 1778084847 | 15.56° C | 98% | 1005.9 hPa | 0 mm | - | - | - |
| 1778084547 | 15° C | 98% | 1005.6 hPa | 0 mm | - | - | - |
| 1778084247 | 15.56° C | 98% | 1005.9 hPa | 0 mm | - | - | - |
| 1778083947 | 14.44° C | 98% | 1005.6 hPa | 0 mm | - | - | - |
| 1778083647 | 14.44° C | 98% | 1005.6 hPa | 0 mm | - | - | - |
| 1778083048 | 14.44° C | 98% | 1005.6 hPa | 0 mm | - | - | - |
| 1778082748 | 15° C | 98% | 1005.2 hPa | 0 mm | - | - | - |
| 1778082448 | 15° C | 99% | 1005.6 hPa | 0 mm | - | - | - |
* Rain latest hour (hover to see other rain measurements)
** Current wind speed in m/s (hover to see current wind gust speed)